This demonstration page uses our WeatherBlox Daily Observations layout. Learn more.

Left ArrowRight Arrow

31.84235, -102.49876

Hourly Observations for August 7, 2015

Temp ( °F °C ) Dew Point ( °F °C ) Humidity (%) Winds ( mph kmh ) Pressure ( in mb ) Visibility ( mi km ) Precip ( " mm )
12:53 am 00:53 Clear 87 30.6 56 13.3 35 35 S 14 22 29.78 1009 10 16 0.00 0.00
1:53 am 01:53 Clear 85 29.4 57 13.9 39 39 SSW 13 20 29.79 1009 10 16 0.00 0.00
2:53 am 02:53 Clear 83 28.3 60 15.6 46 46 S 14 22 29.77 1008 10 16 0.00 0.00
3:53 am 03:53 Clear 82 27.8 60 15.6 47 47 S 9 15 29.77 1008 10 16 0.00 0.00
4:53 am 04:53 Clear 81 27.2 60 15.6 49 49 S 12 19 29.78 1008 10 16 0.00 0.00
5:53 am 05:53 Clear 79 26.1 59 15 50 50 S 10 17 29.78 1009 10 16 0.00 0.00
6:53 am 06:53 Clear 78 25.6 60 15.6 54 54 S 8 13 29.80 1009 10 16 0.00 0.00
7:53 am 07:53 Sunny 77 25 61 16.1 58 58 S 7 11 29.81 1010 10 16 0.00 0.00
8:53 am 08:53 Sunny 80 26.7 63 17.2 56 56 undefined N/A 29.82 1010 10 16 0.00 0.00
9:53 am 09:53 Sunny 84 28.9 63 17.2 49 49 undefined N/A 29.83 1010 10 16 0.00 0.00
10:53 am 10:53 Sunny 88 31.1 62 16.7 42 42 S 10 17 29.82 1010 10 16 0.00 0.00
11:53 am 11:53 Sunny 92 33.3 60 15.6 34 34 S 13 20 29.81 1010 10 16 0.00 0.00
12:53 pm 12:53 Sunny 95 35 58 14.4 29 29 SSE 14 22 29.80 1009 10 16 0.00 0.00
1:53 pm 13:53 Sunny 98 36.7 57 13.9 25 25 S 13 20 29.78 1008 10 16 0.00 0.00
2:53 pm 14:53 Sunny 99 37.2 54 12.2 22 22 SSE 13 20 29.76 1008 10 16 0.00 0.00
3:53 pm 15:53 Sunny 100 37.8 55 12.8 22 22 SSE 14 22 29.73 1007 10 16 0.00 0.00
4:53 pm 16:53 Sunny 100 37.8 52 11.1 20 20 VRB 6 9 29.71 1006 10 16 0.00 0.00
5:53 pm 17:53 Sunny 102 38.9 51 10.6 18 18 SE 10 17 29.69 1006 10 16 0.00 0.00
6:53 pm 18:53 Sunny 101 38.3 51 10.6 19 19 SSE 16 26 29.68 1005 10 16 0.00 0.00
7:53 pm 19:53 Mostly Sunny 99 37.2 53 11.7 21 21 SE 16 26 29.68 1005 10 16 0.00 0.00
8:53 pm 20:53 Clear 96 35.6 54 12.2 24 24 SSE 17 28 29.70 1006 10 16 0.00 0.00
9:53 pm 21:53 Clear 93 33.9 54 12.2 27 27 SSE 17 28 29.72 1006 10 16 0.00 0.00
10:53 pm 22:53 Clear 91 32.8 55 12.8 30 30 SSE 15 24 29.74 1007 10 16 0.00 0.00
11:53 pm 23:53 Clear 89 31.7 58 14.4 35 35 S 16 26 29.76 1008 10 16 0.00 0.00

Powered by AerisWeather